Torna al catalogo

STARLINK-5069

AttivoComunicazioniVLEO
NORAD 55640·PAYLOAD·🇺🇸 United States

Lanciato Feb 17, 2023 da Vandenberg Space Force Base

Loading…

Prossimi Passaggi (prossime 24 ore)

TLE

AggiornatoSource: CelesTrak SupGP

Epoca: Sep 15, 2026, 01:47 UTC

1 55640C 23021N   26258.07479167 -.00049937  00000+0 -41849-2 0  2581
2 55640  70.0011  66.9081 0002859 269.8157 335.2626 14.98357068    12

Traccia STARLINK-5069 in tempo reale con AllMySat

Download on the App Store